Twin Falls, ID

11:52 PM MDT on August 25, 2016 (GMT -0600)
Joslin Field-Magic Valley Regional

Weather History for KTWF - September, 2013

Change the Weather History Date:

Monday, September 23, 2013

  Actual Average Record
Temperature  
Mean Temperature 61 °F -  
Max Temperature 73 °F 74 °F 91 °F (1992)
Min Temperature 49 °F 45 °F 8 °F (2007)
Degree Days  
Heating Degree Days 4 6  
Month to date heating degree days 36 85  
Since 1 July heating degree days 36 106  
Cooling Degree Days 0 1  
Month to date cooling degree days 99 57  
Year to date cooling degree days 1138 674  
Growing Degree Days 9 (Base 50)    
Moisture  
Dew Point 37 °F    
Average Humidity 44    
Maximum Humidity 58    
Minimum Humidity 29    
Precipitation  
Precipitation T in 0.02 in 0.06 in (2007)
Month to date precipitation 0.73 0.41  
Year to date precipitation 3.92 7.29  
Sea Level Pressure  
Sea Level Pressure 29.91 in    
Wind  
Wind Speed 8 mph (SW)    
Max Wind Speed 15 mph    
Max Gust Speed 21 mph    
Visibility 10 miles    
Events Rain    
T = Trace of Precipitation, MM = Missing Value Source: NWS Daily Summary

Daily Weather History Graph

Daily Weather History Graph

Search for Another Location

Airport or City:

Trip Planner

Search our weather history database for the weather conditions in past years. The results will help you decide how hot, cold, wet, or windy it might be!

Date:

Astronomy

Sep. 23, 2013 Rise Set
Actual Time 7:26 AM MDT 7:32 PM MDT
Civil Twilight 6:58 AM MDT 8:00 PM MDT
Nautical Twilight 6:25 AM MDT 8:33 PM MDT
Astronomical Twilight 5:52 AM MDT 9:07 PM MDT
Moon 10:02 PM MDT (9/23) 11:55 AM MDT (9/23)
Length of Visible Light 13h 02m
Length of Day
12h 06m
Waning Gibbous, 81% of the Moon is Illuminated
Sep 23
Waning Gibbous
Sep 26
Last Quarter
Oct 4
New
Oct 11
First Quarter
Oct 18
Full

Hourly Weather History & Observations

Time (MDT) Temp. Dew Point Humidity Pressure Visibility Wind Dir Wind Speed Gust Speed Precip Events Conditions
12:53 AM 46.9 °F 32.0 °F 56% 29.82 in 10.0 mi SW 9.2 mph - N/A   Clear
1:53 AM 51.1 °F 33.1 °F 50% 29.83 in 10.0 mi SSW 8.1 mph - N/A   Overcast
2:53 AM 54.0 °F 36.0 °F 51% 29.84 in 10.0 mi SSW 9.2 mph - 0.00 in Rain Light Rain
3:53 AM 55.9 °F 35.1 °F 45% 29.86 in 10.0 mi SSW 6.9 mph - 0.00 in   Overcast
4:53 AM 55.9 °F 39.0 °F 53% 29.87 in 10.0 mi SW 10.4 mph - N/A   Overcast
5:53 AM 55.0 °F 39.0 °F 55% 29.88 in 10.0 mi SSW 10.4 mph - 0.00 in   Overcast
6:53 AM 54.0 °F 37.0 °F 53% 29.91 in 10.0 mi SW 10.4 mph - N/A   Overcast
7:53 AM 53.1 °F 37.9 °F 57% 29.94 in 10.0 mi SSW 6.9 mph - N/A   Overcast
8:53 AM 55.9 °F 39.0 °F 53% 29.96 in 10.0 mi SSW 8.1 mph - N/A   Overcast
9:53 AM 61.0 °F 39.0 °F 44% 29.97 in 10.0 mi West 13.8 mph - N/A   Mostly Cloudy
10:53 AM 60.1 °F 39.0 °F 46% 30.00 in 10.0 mi West 8.1 mph - N/A   Mostly Cloudy
11:53 AM 64.0 °F 39.9 °F 41% 29.99 in 10.0 mi West 8.1 mph - N/A   Partly Cloudy
12:53 PM 64.9 °F 39.0 °F 39% 29.98 in 10.0 mi Variable 4.6 mph - N/A   Scattered Clouds
1:53 PM 69.1 °F 37.9 °F 32% 29.94 in 10.0 mi WNW 12.7 mph 18.4 mph N/A   Partly Cloudy
2:53 PM 68.0 °F 37.0 °F 32% 29.92 in 10.0 mi Variable 3.5 mph - N/A   Clear
3:53 PM 72.0 °F 37.0 °F 28% 29.89 in 10.0 mi NNW 6.9 mph - N/A   Clear
4:53 PM 71.1 °F 37.0 °F 29% 29.88 in 10.0 mi NNW 10.4 mph 17.3 mph N/A   Clear
5:53 PM 70.0 °F 37.0 °F 30% 29.88 in 10.0 mi NNW 8.1 mph - N/A   Clear
6:53 PM 68.0 °F 37.9 °F 33% 29.88 in 10.0 mi NNE 4.6 mph - N/A   Clear
7:53 PM 60.1 °F 37.9 °F 44% 29.90 in 10.0 mi ENE 4.6 mph - N/A   Clear
8:53 PM 51.1 °F 35.1 °F 54% 29.93 in 10.0 mi ESE 5.8 mph - N/A   Clear
9:53 PM 54.0 °F 35.1 °F 49% 29.91 in 10.0 mi ESE 8.1 mph - N/A   Clear
10:53 PM 51.1 °F 35.1 °F 54% 29.92 in 10.0 mi SE 6.9 mph - N/A   Clear
11:53 PM 51.1 °F 34.0 °F 52% 29.89 in 10.0 mi South 9.2 mph - N/A   Clear